Willimantic, CT

7:23 AM EDT on March 30, 2017 (GMT -0400)
Windham

Weather History for KIJD - September, 2012

Change the Weather History Date:

Monday, September 10, 2012

  Actual Average Record
Temperature  
Mean Temperature 62 °F -  
Max Temperature 72 °F 74 °F 89 °F (1959)
Min Temperature 53 °F 49 °F 32 °F (1956)
Degree Days  
Heating Degree Days 4    
Growing Degree Days 12 (Base 50)    
Moisture  
Dew Point 47 °F    
Average Humidity 64    
Maximum Humidity 90    
Minimum Humidity 42    
Precipitation  
Precipitation 0.00 in - - ()
Sea Level Pressure  
Sea Level Pressure 29.96 in    
Wind  
Wind Speed 4 mph (NNW)    
Max Wind Speed 16 mph    
Max Gust Speed 22 mph    
Visibility 10 miles    
Events      
Averages and records for this station are not official NWS values.
T = Trace of Precipitation, MM = Missing Value Source: NWS Daily Summary

Daily Weather History Graph

Daily Weather History Graph

Search for Another Location

Airport or City:

Trip Planner

Search our weather history database for the weather conditions in past years. The results will help you decide how hot, cold, wet, or windy it might be!

Date:

Astronomy

Sep. 10, 2012 Rise Set
Actual Time 6:24 AM EDT 7:05 PM EDT
Civil Twilight 5:56 AM EDT 7:34 PM EDT
Nautical Twilight 5:22 AM EDT 8:07 PM EDT
Astronomical Twilight 4:48 AM EDT 8:41 PM EDT
Moon 12:39 AM EDT (9/10) 3:37 PM EDT (9/10)
Length of Visible Light 13h 37m
Length of Day
12h 41m
Waning Crescent, 30% of the Moon is Illuminated
Sep 10
Waning Crescent
Sep 15
New
Sep 22
First Quarter
Sep 29
Full
Oct 8
Last Quarter

Hourly Weather History & Observations

Time (EDT) Temp. Dew Point Humidity Pressure Visibility Wind Dir Wind Speed Gust Speed Precip Events Conditions
12:52 AM 57.9 °F 55.0 °F 90% 29.87 in 10.0 mi Calm Calm - N/A   Clear
1:52 AM 57.0 °F 54.0 °F 89% 29.87 in 10.0 mi Calm Calm - N/A   Clear
2:52 AM 55.9 °F 53.1 °F 90% 29.87 in 10.0 mi Calm Calm - N/A   Clear
3:52 AM 55.0 °F 52.0 °F 89% 29.87 in 10.0 mi Calm Calm - N/A   Clear
4:26 AM 55.4 °F 51.8 °F 88% 29.88 in 10.0 mi Calm Calm - N/A   Partly Cloudy
4:52 AM 55.0 °F 51.1 °F 86% 29.88 in 10.0 mi Calm Calm - N/A   Clear
5:52 AM 55.0 °F 51.1 °F 86% 29.90 in 10.0 mi Calm Calm - N/A   Clear
6:52 AM 53.1 °F 50.0 °F 89% 29.93 in 10.0 mi Calm Calm - N/A   Clear
7:52 AM 59.0 °F 51.1 °F 75% 29.95 in 10.0 mi North 5.8 mph - N/A   Overcast
8:52 AM 62.1 °F 51.1 °F 67% 29.96 in 10.0 mi NNW 8.1 mph - N/A   Clear
9:52 AM 64.9 °F 46.9 °F 52% 29.97 in 10.0 mi North 15.0 mph 19.6 mph N/A   Clear
10:52 AM 66.9 °F 46.0 °F 47% 29.96 in 10.0 mi NNW 15.0 mph - N/A   Clear
11:52 AM 68.0 °F 44.1 °F 42% 29.96 in 10.0 mi NNW 16.1 mph 21.9 mph N/A   Scattered Clouds
12:52 PM 68.0 °F 46.0 °F 45% 29.95 in 10.0 mi NW 13.8 mph 17.3 mph N/A   Overcast
1:52 PM 68.0 °F 45.0 °F 43% 29.94 in 10.0 mi NNW 11.5 mph - N/A   Mostly Cloudy
2:52 PM 70.0 °F 46.0 °F 42% 29.94 in 10.0 mi NNW 9.2 mph - N/A   Overcast
3:52 PM 69.1 °F 45.0 °F 42% 29.94 in 10.0 mi NNW 11.5 mph - N/A   Mostly Cloudy
4:52 PM 68.0 °F 45.0 °F 43% 29.96 in 10.0 mi Variable 6.9 mph - N/A   Mostly Cloudy
5:52 PM 66.0 °F 43.0 °F 43% 29.98 in 10.0 mi NNW 11.5 mph 17.3 mph N/A   Partly Cloudy
6:52 PM 63.0 °F 41.0 °F 45% 30.01 in 10.0 mi NNW 8.1 mph - N/A   Partly Cloudy
7:52 PM 59.0 °F 44.1 °F 58% 30.03 in 10.0 mi Calm Calm - N/A   Clear
8:52 PM 59.0 °F 42.1 °F 53% 30.06 in 10.0 mi NNW 3.5 mph - N/A   Partly Cloudy
9:52 PM 55.0 °F 44.1 °F 67% 30.07 in 10.0 mi NE 3.5 mph - N/A   Clear
10:52 PM 54.0 °F 44.1 °F 69% 30.09 in 10.0 mi Calm Calm - N/A   Clear
11:52 PM 53.1 °F 44.1 °F 71% 30.10 in 10.0 mi Calm Calm - N/A   Clear